STARLINK-1101 (44919 NORAD) Tracking and Keplerian Element Data

This shows tracking and keplerian element data for the satellite.

Feedback or suggestion? Click here.




ElementValue
Catalog44919
NameSTARLINK-1101
Epoch Orbit710
Epoch Day52.91667824
Epoch Year2020
RAAN177.6972
Inclination53.0002
Eccentricity0.000151
Argument of Perigee64.7456
Mean Anonmoly221.423
Mean Motion15.0559494
Decay Rate0.00010991
L11 44919U 20001F 20052.91667824 .00010991 00000-0 77199-3 0 9998
L22 44919 53.0002 177.6972 0001510 64.7456 221.4230 15.05594940 7101

Live tracking and technical data element details for STARLINK-1101 (NORAD 44919). STARLINK-1101 can be tracked NOW for your location showing map with azimuth and elevation plus other details from your city location.

Track the satellite on the map from your city or location and see movement details for azimuth, elevation, latitude, longitude, range, height, and movement on the map or in text.







IsCatalogInMostPopularTable: catalog: 44919, numindb: 14
Update: records affected: 1



GetName: 44919 STARLINK-1101

Hit Count: updated at: Mon, 24 Feb 2020 17:42:21 GMT